Precipitable_Water
0.75 0.75 0.77 0.78 0.85 0.86 0.79 0.81 0.81 0.80 0.78 0.72 0.64 0.67 0.78 0.82 0.79 0.84 0.87 0.86 0.87 0.88 0.89 0.92 0.94 0.90 0.79 0.59 0.59 0.90 0.86 0.82 0.88 0.86 0.79 0.72 0.63 0.55 0.50 0.59 0.66 0.61 0.67 0.67 0.67 0.64 0.68
0.72 0.76 0.78 0.71 0.79 0.86 0.83 0.79 0.79 0.76 0.81 0.78 0.68 0.65 0.71 0.80 0.81 0.87 0.91 0.90 0.89 0.90 0.87 0.89 0.93 0.94 0.73 0.48 0.75 0.84 0.89 0.81 0.76 0.78 0.78 0.79 0.69 0.65 0.55 0.56 0.56 0.66 0.70 0.69 0.72 0.65 0.66
0.80 0.74 0.79 0.77 0.71 0.80 0.85 0.81 0.80 0.79 0.79 0.78 0.72 0.65 0.67 0.75 0.78 0.89 0.92 0.95 0.91 0.90 0.88 0.87 0.93 0.87 0.69 0.58 0.77 0.78 0.80 0.75 0.74 0.70 0.63 0.77 0.78 0.69 0.63 0.51 0.65 0.62 0.59 0.65 0.63 0.68 0.63
0.94 0.83 0.75 0.76 0.75 0.79 0.82 0.83 0.83 0.83 0.82 0.77 0.77 0.72 0.65 0.75 0.73 0.85 0.90 0.93 0.97 0.94 0.95 0.90 0.89 0.83 0.61 0.81 0.83 0.76 0.73 0.64 0.66 0.65 0.62 0.67 0.79 0.69 0.62 0.72 0.62 0.56 0.56 0.46 0.52 0.64 0.64
1.01 0.94 0.82 0.74 0.74 0.83 0.86 0.82 0.84 0.85 0.86 0.83 0.80 0.84 0.75 0.71 0.75 0.78 0.85 0.89 0.91 1.00 0.98 0.94 0.76 0.70 0.51 0.78 0.67 0.69 0.72 0.61 0.64 0.64 0.63 0.64 0.63 0.57 0.57 0.47 0.45 0.49 0.34 0.35 0.43 0.63 0.62
1.08 1.04 0.93 0.82 0.75 0.77 0.85 0.83 0.84 0.87 0.90 0.89 0.81 0.89 0.88 0.72 0.78 0.77 0.84 0.86 0.94 0.94 0.98 0.94 0.82 0.65 0.63 0.55 0.66 0.68 0.73 0.73 0.62 0.59 0.55 0.52 0.49 0.42 0.45 0.39 0.21 0.31 0.38 0.39 0.38 0.50 0.59
0.99 1.05 1.03 0.93 0.83 0.81 0.77 0.79 0.85 0.88 0.87 0.92 0.86 0.82 0.91 0.76 0.75 0.81 0.79 0.78 0.65 0.61 0.74 0.60 0.61 0.59 0.63 0.72 0.76 0.69 0.71 0.66 0.63 0.55 0.41 0.48 0.38 0.27 0.29 0.34 0.32 0.36 0.41 0.43 0.44 0.54 0.55
0.81 1.00 1.06 1.03 0.90 0.86 0.76 0.77 0.83 0.88 0.91 0.90 0.90 0.83 0.89 0.78 0.76 0.80 0.79 0.63 0.67 0.71 0.50 0.71 0.71 0.70 0.74 0.78 0.62 0.66 0.75 0.58 0.53 0.42 0.46 0.42 0.33 0.32 0.39 0.41 0.37 0.37 0.41 0.42 0.52 0.56 0.54
0.60 0.83 0.97 1.05 1.01 0.89 0.79 0.79 0.82 0.87 0.94 0.94 0.93 0.89 0.87 0.79 0.84 0.80 0.71 0.69 0.85 0.80 0.51 0.57 0.67 0.67 0.71 0.73 0.63 0.63 0.69 0.60 0.50 0.43 0.41 0.36 0.31 0.45 0.39 0.36 0.36 0.34 0.36 0.45 0.51 0.57 0.58
0.55 0.68 0.84 0.95 1.02 0.96 0.86 0.81 0.86 0.88 0.92 0.99 0.95 0.94 0.88 0.83 0.74 0.73 0.67 0.77 0.85 0.85 0.39 0.42 0.54 0.67 0.73 0.74 0.58 0.74 0.74 0.62 0.52 0.40 0.41 0.39 0.40 0.37 0.38 0.34 0.37 0.29 0.39 0.46 0.58 0.57 0.41
0.56 0.56 0.66 0.93 1.05 1.02 0.95 0.86 0.88 0.92 0.96 1.02 0.98 0.99 0.94 0.84 0.77 0.73 0.82 0.87 0.86 0.76 0.20 0.49 0.57 0.80 0.73 0.61 0.62 0.61 0.75 0.66 0.47 0.43 0.42 0.34 0.35 0.34 0.34 0.35 0.41 0.34 0.46 0.50 0.57 0.55 0.54
0.60 0.58 0.56 0.70 0.95 0.98 1.04 0.93 0.89 0.93 0.99 1.05 1.01 1.02 0.97 0.86 0.82 0.90 0.90 0.84 0.74 0.37 0.23 0.44 0.58 0.55 0.55 0.59 0.59 0.64 0.58 0.68 0.61 0.48 0.44 0.38 0.49 0.44 0.38 0.41 0.42 0.46 0.51 0.60 0.63 0.58 0.39
0.60 0.65 0.63 0.56 0.85 0.95 0.99 0.98 0.89 0.93 1.00 1.04 1.03 1.04 0.97 0.94 0.74 0.95 0.87 0.67 0.35 0.26 0.46 0.46 0.48 0.53 0.50 0.48 0.48 0.52 0.48 0.43 0.37 0.31 0.30 0.37 0.40 0.46 0.54 0.40 0.44 0.49 0.45 0.38 0.37 0.37 0.33
0.59 0.64 0.67 0.64 0.79 0.89 0.98 0.99 0.89 0.93 0.99 1.05 1.02 1.07 1.02 0.95 1.01 0.97 0.77 0.47 0.26 0.35 0.44 0.57 0.53 0.51 0.42 0.47 0.44 0.45 0.44 0.37 0.40 0.36 0.31 0.27 0.22 0.38 0.50 0.43 0.42 0.45 0.49 0.41 0.31 0.29 0.32
0.60 0.64 0.68 0.67 0.77 0.87 0.95 1.00 0.92 0.93 1.00 1.05 1.01 0.99 0.94 0.99 1.04 0.95 0.62 0.32 0.30 0.47 0.54 0.50 0.50 0.41 0.40 0.41 0.40 0.39 0.38 0.36 0.40 0.40 0.31 0.30 0.32 0.51 0.48 0.49 0.59 0.48 0.44 0.61 0.46 0.37 0.30
0.62 0.67 0.70 0.69 0.88 0.88 0.96 0.99 0.93 0.95 1.03 1.05 0.88 0.86 0.84 1.06 1.04 0.83 0.52 0.35 0.46 0.60 0.59 0.55 0.40 0.44 0.34 0.33 0.34 0.35 0.32 0.35 0.35 0.45 0.49 0.40 0.33 0.46 0.56 0.61 0.64 0.63 0.63 0.49 0.48 0.29 0.26
0.63 0.66 0.69 0.73 0.85 0.88 0.94 0.98 0.95 1.00 1.06 1.04 0.84 0.66 0.85 1.08 0.98 0.64 0.41 0.39 0.56 0.65 0.63 0.52 0.45 0.42 0.37 0.33 0.34 0.34 0.35 0.38 0.46 0.42 0.51 0.48 0.41 0.46 0.56 0.50 0.49 0.56 0.54 0.59 0.55 0.42 0.32
0.58 0.64 0.71 0.78 0.84 0.87 0.91 0.97 1.00 1.05 1.08 0.96 0.77 0.53 0.91 1.02 0.57 0.56 0.42 0.53 0.64 0.61 0.66 0.58 0.54 0.47 0.39 0.37 0.35 0.34 0.34 0.40 0.51 0.47 0.43 0.52 0.46 0.40 0.47 0.61 0.66 0.62 0.61 0.57 0.41 0.38 0.42
0.56 0.62 0.71 0.78 0.82 0.87 0.92 0.97 1.03 1.07 1.04 0.84 0.64 0.64 0.91 0.88 0.44 0.47 0.51 0.59 0.62 0.60 0.59 0.54 0.48 0.46 0.39 0.35 0.37 0.39 0.42 0.49 0.50 0.49 0.45 0.54 0.44 0.38 0.42 0.55 0.65 0.57 0.62 0.59 0.56 0.51 0.41
0.53 0.60 0.70 0.77 0.83 0.87 0.91 0.93 1.06 1.09 1.00 0.85 0.66 0.50 0.65 0.71 0.68 0.54 0.50 0.54 0.54 0.67 0.61 0.58 0.49 0.44 0.37 0.34 0.42 0.43 0.40 0.50 0.52 0.49 0.59 0.68 0.51 0.45 0.38 0.42 0.57 0.53 0.54 0.57 0.53 0.41 0.41
0.49 0.59 0.66 0.74 0.79 0.88 0.91 0.91 1.03 1.08 0.97 0.85 0.67 0.54 0.62 0.47 0.53 0.54 0.58 0.59 0.55 0.53 0.63 0.57 0.44 0.40 0.37 0.32 0.38 0.37 0.44 0.49 0.52 0.54 0.56 0.61 0.49 0.55 0.55 0.54 0.51 0.52 0.53 0.56 0.49 0.48 0.41
0.46 0.54 0.65 0.75 0.79 0.81 0.88 0.94 1.02 1.06 0.98 0.79 0.61 0.56 0.66 0.60 0.62 0.52 0.57 0.56 0.55 0.59 0.61 0.50 0.44 0.48 0.43 0.36 0.40 0.38 0.46 0.52 0.50 0.54 0.50 0.58 0.50 0.53 0.46 0.53 0.51 0.48 0.52 0.51 0.50 0.50 0.48
0.44 0.52 0.64 0.72 0.75 0.80 0.86 0.91 0.96 1.04 0.96 0.75 0.81 0.77 0.66 0.59 0.58 0.47 0.51 0.60 0.59 0.64 0.65 0.63 0.56 0.51 0.50 0.44 0.53 0.57 0.59 0.61 0.67 0.54 0.53 0.55 0.52 0.46 0.37 0.44 0.43 0.37 0.46 0.48 0.48 0.50 0.48
0.39 0.49 0.62 0.70 0.72 0.76 0.83 0.89 0.97 1.02 0.97 0.85 0.81 0.76 0.62 0.50 0.54 0.41 0.54 0.65 0.63 0.66 0.62 0.67 0.69 0.61 0.68 0.71 0.69 0.66 0.72 0.65 0.63 0.64 0.61 0.50 0.49 0.50 0.38 0.40 0.27 0.40 0.48 0.46 0.43 0.44 0.49
0.40 0.47 0.59 0.66 0.70 0.76 0.82 0.89 0.96 1.04 0.99 0.86 0.86 0.76 0.67 0.53 0.60 0.44 0.56 0.63 0.69 0.72 0.68 0.70 0.70 0.75 0.79 0.66 0.54 0.47 0.47 0.51 0.54 0.60 0.61 0.60 0.54 0.45 0.36 0.36 0.42 0.44 0.45 0.44 0.40 0.39 0.48
0.41 0.47 0.56 0.62 0.68 0.75 0.81 0.89 0.94 0.92 0.98 0.91 0.88 0.92 0.76 0.59 0.56 0.48 0.52 0.66 0.62 0.63 0.65 0.70 0.81 0.80 0.80 0.63 0.53 0.39 0.34 0.42 0.42 0.49 0.61 0.62 0.60 0.49 0.45 0.33 0.29 0.41 0.47 0.49 0.49 0.35 0.50
0.37 0.47 0.55 0.62 0.66 0.74 0.81 0.86 0.92 0.94 0.97 0.91 0.87 0.95 0.81 0.62 0.71 0.55 0.54 0.61 0.74 0.70 0.64 0.69 0.72 0.68 0.79 0.58 0.47 0.43 0.41 0.54 0.41 0.41 0.45 0.49 0.51 0.44 0.44 0.40 0.42 0.53 0.53 0.52 0.34 0.38 0.48
0.36 0.45 0.54 0.60 0.67 0.74 0.77 0.85 0.94 0.93 0.96 0.91 0.85 0.96 0.83 0.68 0.74 0.64 0.67 0.64 0.72 0.74 0.63 0.71 0.66 0.70 0.66 0.51 0.50 0.52 0.47 0.51 0.51 0.55 0.51 0.49 0.46 0.45 0.47 0.40 0.35 0.59 0.55 0.43 0.52 0.56 0.54
0.34 0.44 0.54 0.62 0.67 0.74 0.79 0.87 0.93 0.91 0.95 0.95 0.79 0.94 0.99 0.78 0.76 0.75 0.77 0.82 0.77 0.89 0.79 0.77 0.71 0.70 0.70 0.59 0.61 0.59 0.50 0.53 0.50 0.43 0.61 0.46 0.52 0.47 0.48 0.46 0.61 0.64 0.60 0.62 0.63 0.59 0.58
Wind_Speed
28 28 28 28 28 27 26 25 24 23 22 21 21 20 20 19 18 19 19 19 19 20 20 20 21 21 21 24 26 23 21 18 19 24 28 26 26 26 28 25 30 35 32 33 31 32 32
29 29 29 29 30 29 28 27 25 25 24 23 22 21 21 20 19 19 19 19 19 20 20 21 22 22 23 27 25 28 25 24 20 20 24 28 27 27 29 30 31 27 35 33 32 32 32
30 31 31 31 31 31 30 29 28 26 25 25 23 23 22 21 21 20 20 19 19 20 21 22 23 24 27 25 23 24 27 28 28 27 25 25 28 29 24 29 29 33 33 32 36 33 33
32 32 33 33 33 33 32 31 30 29 27 26 25 24 23 23 22 21 21 20 20 21 21 22 22 24 27 25 30 28 26 26 27 29 30 28 26 29 31 25 26 27 32 33 34 31 33
34 34 34 35 35 35 34 33 32 31 30 28 27 25 24 24 23 23 22 22 23 23 22 22 22 24 26 23 29 29 29 26 25 24 26 28 27 27 28 28 26 30 32 39 33 34 31
38 38 37 37 36 36 36 35 34 33 31 30 28 27 25 24 24 23 22 23 23 23 22 22 23 22 24 23 23 25 28 30 28 25 25 27 26 26 28 29 33 31 32 34 34 33 34
41 43 40 40 39 38 37 37 36 34 32 31 29 27 26 25 24 23 22 22 21 22 24 22 21 21 19 22 22 23 25 27 29 31 29 28 29 33 36 36 35 33 33 32 35 31 35
43 41 44 42 42 40 38 37 36 34 32 30 29 27 26 25 23 23 22 22 22 22 26 28 28 28 31 25 25 25 24 26 27 31 29 30 36 38 33 34 36 37 36 36 29 34 32
46 45 44 46 44 43 41 38 36 34 32 30 28 27 26 24 22 22 23 24 23 24 27 26 29 31 28 28 29 27 27 28 28 30 32 34 35 34 36 37 38 41 39 34 30 31 27
46 45 44 41 47 44 42 40 37 34 32 30 28 26 25 21 21 22 22 23 22 21 23 23 22 21 26 24 28 29 28 28 28 31 30 32 34 35 35 41 40 42 41 39 31 27 27
45 45 44 41 34 40 42 41 37 34 32 30 28 26 24 23 18 18 17 16 17 17 19 13 16 18 18 21 20 22 30 30 30 28 25 26 26 29 33 36 38 38 35 39 34 29 24
42 41 40 40 37 34 36 39 37 34 32 31 28 26 25 22 22 18 16 14 14 14 18 15 16 16 15 17 20 20 23 27 24 26 27 26 21 25 30 33 39 32 32 33 32 22 22
38 35 34 37 37 30 30 35 35 33 31 30 28 26 25 21 20 18 15 13 14 16 14 15 16 15 17 18 19 19 19 26 21 18 21 22 25 23 23 23 35 39 33 21 24 21 20
34 31 29 30 33 32 31 32 35 32 31 29 27 26 25 22 18 16 14 13 17 15 15 15 16 16 16 15 16 18 15 20 24 20 12 16 18 22 26 32 28 41 30 17 17 23 20
29 26 25 23 30 27 27 30 33 32 30 27 26 25 23 23 20 18 14 16 16 16 16 15 13 15 14 13 11 13 20 15 17 24 15 10 13 15 23 31 29 30 30 24 15 21 17
25 22 20 20 22 25 24 28 31 31 29 27 25 24 22 21 22 19 17 18 16 16 14 13 14 12 10 10 9 11 13 14 21 21 19 10 8 15 22 28 28 22 25 19 15 16 16
22 19 16 17 21 21 21 23 29 30 28 26 24 21 19 21 21 18 18 16 15 17 14 13 13 11 12 8 10 11 9 13 14 19 18 13 12 11 20 26 25 22 21 22 12 13 14
19 15 12 11 17 20 19 22 28 30 27 26 23 19 19 20 18 16 16 14 14 13 13 14 12 13 9 10 11 12 13 12 13 18 16 14 6 12 19 16 25 24 19 14 13 11 10
17 13 11 9 14 17 18 18 27 30 29 25 22 19 19 18 16 15 14 13 15 13 12 9 8 10 8 9 8 13 12 13 17 16 16 11 10 12 16 9 19 21 22 17 12 10 12
16 12 11 10 10 17 17 18 22 31 30 26 22 18 17 18 16 13 14 12 12 13 15 10 9 11 12 10 13 7 11 10 15 16 11 13 10 9 13 16 16 18 22 19 17 11 10
14 12 11 10 10 13 17 20 18 30 31 27 22 18 17 14 15 16 12 11 9 8 10 8 7 12 11 11 12 11 13 10 14 15 15 8 5 7 13 16 22 21 19 17 21 18 12
14 13 11 10 11 15 15 15 19 30 31 26 21 18 16 14 14 16 17 12 11 10 8 7 8 8 13 12 12 13 15 14 11 15 18 13 3 2 9 11 17 18 19 17 16 16 16
14 13 11 10 12 15 16 17 17 30 31 24 22 18 15 12 13 12 12 10 10 12 14 14 13 10 9 14 11 13 14 15 10 15 18 11 7 3 5 7 10 10 19 19 17 18 17
15 15 11 12 13 16 17 17 18 28 31 24 22 18 16 15 13 13 12 10 11 13 14 13 12 12 8 9 13 12 11 10 9 9 14 15 10 6 6 7 6 9 9 16 18 18 20
13 15 14 13 14 16 18 17 17 27 29 24 22 18 16 13 12 13 10 8 8 9 15 13 13 13 9 9 12 12 11 10 10 9 13 15 11 6 7 8 8 7 8 10 13 17 18
14 16 16 13 14 17 19 18 20 22 29 25 22 21 16 13 11 9 9 6 6 6 11 15 13 14 13 12 13 13 13 12 11 10 10 13 11 9 7 7 7 6 5 9 9 11 13
15 16 17 15 15 18 20 19 20 21 28 24 21 22 18 15 13 11 9 6 4 5 6 11 12 13 16 13 13 12 12 13 11 13 13 13 12 12 11 6 8 7 6 6 6 7 7
14 16 17 16 16 19 21 21 19 22 28 25 21 21 18 15 13 10 9 8 6 6 8 10 12 12 13 14 14 13 11 13 10 11 13 12 12 11 9 8 10 7 7 7 7 6 5
15 18 17 16 16 19 22 21 21 22 27 25 21 20 20 16 11 10 10 10 9 7 8 10 11 12 12 15 13 13 10 11 10 9 13 12 13 12 12 12 7 6 6 7 7 7 6
Wind_Direction
277 274 271 267 267 266 268 269 268 268 269 270 270 270 273 277 281 286 289 289 287 284 282 275 270 265 259 252 252 255 259 263 260 249 245 248 248 246 246 246 241 244 245 244 242 243 245
277 273 271 269 265 265 265 266 267 267 266 268 269 269 270 274 279 284 287 288 287 285 283 277 270 264 261 256 258 254 257 256 258 256 248 246 247 247 252 246 245 246 244 245 244 242 241
279 273 271 268 265 265 263 263 264 265 264 266 267 267 268 271 275 281 286 286 287 286 282 280 272 265 261 258 259 256 257 255 256 257 255 250 248 248 248 249 250 243 247 241 240 241 240
281 275 271 268 265 264 262 261 260 262 263 263 264 266 266 268 272 277 282 284 287 288 285 282 275 268 264 262 256 259 259 259 256 254 253 252 252 248 245 252 250 243 241 241 236 238 238
280 277 272 268 265 263 261 260 259 259 259 261 261 262 265 267 270 274 279 282 284 286 284 283 278 270 271 264 255 255 253 254 255 255 251 247 248 245 244 244 246 237 238 236 238 234 237
277 276 273 269 266 262 260 259 258 257 257 258 259 259 262 266 267 271 277 282 285 285 279 282 276 277 267 262 260 256 252 250 254 253 252 244 243 241 238 234 235 236 234 239 234 233 235
283 274 272 268 264 262 260 257 255 255 255 255 257 258 258 263 265 269 275 283 285 283 273 271 275 268 275 273 264 256 252 250 250 251 248 243 240 239 237 235 240 240 241 239 237 233 232
281 278 268 266 262 260 258 255 253 252 251 251 253 253 256 260 262 267 271 279 281 285 284 269 271 268 268 276 262 257 252 248 246 246 243 244 242 242 242 240 238 238 240 240 240 233 231
282 277 274 264 261 256 254 252 250 249 248 248 250 250 252 255 261 265 270 275 283 284 283 278 270 269 265 263 262 258 248 245 245 245 242 244 251 244 244 241 237 235 233 231 233 233 229
286 277 271 269 257 254 250 247 247 246 245 244 245 247 247 249 260 264 272 278 279 286 285 284 282 281 263 263 267 254 249 244 250 248 245 250 249 246 241 238 232 233 226 226 231 233 218
289 280 272 264 262 254 247 243 242 241 241 240 240 242 241 242 257 263 274 279 280 284 287 290 287 289 282 257 273 260 244 244 245 244 241 250 245 240 238 233 226 228 216 219 224 227 217
294 284 271 259 256 254 246 238 236 237 236 236 236 238 236 243 253 263 267 275 280 282 279 284 292 285 275 264 265 271 239 237 243 243 247 249 239 236 237 229 216 215 206 214 232 212 221
298 289 274 260 244 248 244 235 231 231 231 232 231 233 232 239 251 249 257 272 281 272 292 290 291 283 271 275 267 251 240 230 233 238 242 236 239 232 231 220 207 209 202 207 203 209 219
299 292 280 257 239 242 242 236 227 226 225 227 229 229 231 237 241 238 253 273 270 278 279 294 292 284 278 278 269 242 239 225 226 226 228 225 235 223 210 196 194 198 192 200 197 191 195
303 295 284 258 234 239 238 232 221 221 221 224 224 226 227 233 231 234 255 268 274 282 283 285 288 284 281 266 263 224 225 221 216 213 211 212 225 200 197 189 194 187 205 207 216 203 197
307 300 290 245 236 233 238 224 216 216 216 218 219 222 227 229 227 234 260 269 271 276 282 288 280 272 273 243 233 215 211 224 222 212 207 217 233 190 189 185 197 207 196 206 199 187 190
308 301 293 249 234 228 229 220 213 211 211 211 214 219 226 222 221 237 258 264 273 273 276 277 280 286 265 228 215 207 209 226 210 204 193 193 196 192 185 188 193 192 189 200 188 177 184
304 303 289 263 226 224 224 219 211 207 208 206 210 216 215 209 225 245 258 261 273 281 261 274 281 267 254 207 195 207 218 218 177 166 173 184 190 195 190 197 195 190 186 186 185 178 186
303 291 281 257 235 221 216 220 209 204 203 203 207 213 212 218 233 247 252 264 269 274 262 273 266 219 220 195 199 199 207 194 168 165 168 170 186 178 172 181 192 197 200 197 203 194 193
297 279 277 265 236 216 217 217 211 200 200 201 205 210 217 224 238 246 244 263 272 264 257 258 251 226 215 201 201 176 195 191 181 184 159 175 178 189 206 205 173 183 196 202 208 201 203
289 275 273 255 230 222 222 215 213 198 198 201 207 214 215 217 231 238 232 258 276 267 233 216 214 213 208 206 190 195 192 179 182 184 175 172 183 209 228 184 186 188 190 199 206 208 211
283 258 266 259 229 218 213 197 206 198 198 203 205 210 214 225 233 233 238 252 255 253 228 207 205 200 199 197 188 191 192 183 183 187 187 197 199 334 122 158 176 192 195 202 212 211 222
275 249 255 256 233 217 217 214 210 201 197 203 206 213 217 226 230 233 237 246 257 254 232 225 202 204 206 196 203 186 192 188 180 183 192 196 198 207 153 169 177 209 213 218 225 223 222
262 240 253 246 235 224 217 212 214 202 201 205 207 211 215 230 239 240 232 246 270 240 220 201 195 192 179 186 173 172 171 175 182 192 192 198 207 223 203 195 209 218 222 228 228 227 226
255 234 241 247 239 220 215 213 213 199 202 206 207 209 215 226 240 252 234 272 275 232 214 211 206 200 205 198 187 191 201 202 209 209 202 197 201 221 213 225 246 235 233 228 219 233 230
250 237 238 242 236 223 217 215 209 210 201 205 208 210 213 221 229 246 238 262 256 236 216 212 212 211 206 201 195 195 198 201 207 214 209 205 208 219 234 227 229 220 241 243 230 239 246
251 238 234 244 238 225 217 215 210 210 201 204 207 210 214 222 236 244 237 248 240 232 206 199 199 194 200 199 198 195 194 194 200 202 204 210 217 218 222 232 241 220 228 234 202 228 251
253 234 236 243 237 222 214 210 211 208 202 204 208 208 211 219 232 236 233 235 243 226 208 199 190 202 198 197 200 204 198 203 201 200 207 208 201 209 211 217 238 221 224 219 216 229 236
249 236 237 243 235 219 211 212 210 207 201 202 206 207 212 219 227 233 236 237 231 224 210 199 201 195 190 187 202 203 201 204 203 205 206 210 213 211 217 225 220 210 221 224 228 228 236